Powrót do katalogu

STARLINK-34103

AktywnyŁącznośćVLEO
NORAD 63962·PAYLOAD·🇺🇸 United States

Wystrzelony May 13, 2025 z Cape Canaveral Space Force Station

Loading…

Następne Przeloty (najbliższe 24 godziny)

TLE

ŚwieżeSource: CelesTrak SupGP

Epoka: Sep 14, 2026, 21:25 UTC

1 63962C 25099L   26257.89284722 -.00001309  00000+0 -47407-4 0  2572
2 63962  42.9998 187.6649 0001332 263.6575  67.7576 15.27589135    18

Śledź STARLINK-34103 w czasie rzeczywistym z AllMySat

Download on the App Store